x

9444900 - Port Townsend, Wa (ptww1) Weather Station

4:54pm - Fri 3rd Jul 2015 All times are PDT. -7 hours from GMT.

  • Wind
    8mph, 11mph gusts
  • Sea Temp 55°f
  • Air Temp 82°f
  • Sea Pressure 1012.1mb
  • 9444900 - Port Townsend, Wa
  • 9444900 - Port Townsend, Wa

More Historic Weather Station data

Upgrade to MSW Pro to gain access to the past 30 days of data for over 8000 Wavebouys and Weather Stations around the globe.

Join Pro

Comparision Forecast

View Surf forecast
   
Fri 07/03 4:54pm 8 11 mph 1012.1mb 55f 82f
4:48pm 7 10 mph 1012.1mb 55f 82f
4:42pm 6 9 mph 1012.2mb 55f 82f
4:36pm 6 9 mph 1012.3mb 56f 83f
4:30pm 7 10 mph 1012.4mb 56f 82f
4:24pm 7 10 mph 1012.4mb 56f 82f
4:18pm 7 9 mph 1012.5mb 56f 82f
4:12pm 7 10 mph 1012.5mb 56f 81f
4:06pm 5 9 mph 1012.6mb 56f 83f
4:00pm 7 11 mph 1012.6mb 56f 82f
3:54pm 6 9 mph 1012.7mb 56f 82f
3:48pm 7 11 mph 1012.7mb 56f 81f
3:42pm 6 11 mph 1012.8mb 56f 82f
3:36pm 6 11 mph 1012.9mb 56f 84f
3:30pm 7 9 mph 1012.9mb 56f 83f
3:24pm 3 11 mph 1013mb 56f 82f
3:18pm 8 10 mph 1013mb 56f 80f
3:12pm 2 7 mph 1013.1mb 57f 80f
3:06pm 2 7 mph 1013.2mb 57f 81f
3:00pm 3 7 mph 1013.4mb 57f 82f
2:54pm 3 6 mph 1013.4mb 57f 80f
2:48pm  -  3 mph 1013.5mb 57f 78f
2:42pm 2 6 mph 1013.5mb 57f 76f
2:36pm 6 9 mph 1013.5mb 57f 82f
2:30pm 5 7 mph 1013.7mb 57f 82f
2:24pm 3 6 mph 1013.6mb 57f 82f
2:18pm 6 9 mph 1013.6mb 57f 81f
2:12pm 7 10 mph 1013.6mb 57f 81f
2:06pm 8 10 mph 1013.7mb 57f 81f
2:00pm 9 11 mph 1013.8mb 57f 80f
1:54pm 6 8 mph 1013.8mb 57f 79f
1:48pm 2 3 mph 1013.9mb 57f 77f
1:42pm 3
mph
1014mb 57f 75f
1:36pm 2 5 mph 1014.1mb 57f 74f
1:30pm 3 5 mph 1014.2mb 58f 76f
1:18pm 3 7 mph 1014.3mb 58f 79f
1:12pm 5 6 mph 1014.3mb 58f 78f
1:06pm 5 8 mph 1014.4mb 59f 77f
1:00pm 6 9 mph 1014.4mb 59f 77f
12:54pm 5 7 mph 1014.5mb 60f 76f
12:48pm 2 3 mph 1014.5mb 60f 71f
12:42pm 2 3 mph 1014.5mb 59f 73f
12:36pm 2 3 mph 1014.6mb 59f 72f
12:30pm 3 5 mph 1014.7mb 58f 72f
12:24pm 3 5 mph 1014.8mb 58f 72f
12:18pm 2 3 mph 1014.8mb 58f 72f
12:12pm 1 5 mph 1014.8mb 58f 72f
12:06pm 3 5 mph 1014.8mb 56f 71f
12:00pm 2 3 mph 1014.9mb 56f 71f
11:54am 1 3 mph 1015.1mb 55f 69f
11:48am  -  3 mph 1015.1mb 55f 70f
11:42am 2 5 mph 1015.1mb 54f 70f
11:36am 5
mph
1015.1mb 54f 70f
11:30am 2 3 mph 1015.2mb 54f 70f
11:24am 2 3 mph 1015.1mb 53f 71f
11:18am 2 3 mph 1015.2mb 53f 67f
11:12am  -  5 mph 1015.2mb 53f 69f
11:06am 2 3 mph 1015.2mb 54f 67f
11:00am 1 6 mph 1015.1mb 53f 70f
10:54am 3 5 mph 1015.2mb 53f 67f
10:48am 2 3 mph 1015.2mb 53f 69f
10:42am  -  2 mph 1015.2mb 53f 69f
10:36am 2 3 mph 1015.2mb 53f 69f
10:30am 2 3 mph 1015.2mb 53f 67f
10:24am  -  2 mph 1015.2mb 53f 67f
10:18am 1 3 mph 1015.2mb 53f 66f
10:12am 2 3 mph 1015.2mb 53f 66f
10:06am 2 3 mph 1015.2mb 53f 67f
10:00am 2
mph
1015.2mb 53f 66f
9:54am 1 2 mph 1015.3mb 53f 66f
9:48am 2
mph
1015.3mb 53f 66f
9:42am 1 3 mph 1015.3mb 53f 66f
9:36am  -  2 mph 1015.3mb 53f 67f
9:30am 1
mph
1015.4mb 53f 66f
9:24am 2 3 mph 1015.4mb 53f 66f
9:18am 3 5 mph 1015.4mb 53f 64f
9:12am 2 3 mph 1015.4mb 53f 64f
9:06am 2 3 mph 1015.5mb 53f 64f
9:00am 2 3 mph 1015.5mb 53f 64f
8:54am 2 5 mph 1015.5mb 53f 64f
8:48am 3
mph
1015.4mb 53f 65f
8:42am 2 3 mph 1015.4mb 53f 65f
8:36am 2
mph
1015.3mb 53f 65f
8:30am 1 2 mph 1015.3mb 53f 64f
8:24am 2
mph
1015.4mb 53f 62f
8:18am 1
mph
1015.4mb 53f 61f
8:12am 1
mph
1015.4mb 53f 61f
8:06am  -  2 mph 1015.4mb 53f 60f
8:00am 1 2 mph 1015.4mb 53f 59f
7:54am 1 2 mph 1015.4mb 53f 59f
7:48am 1 2 mph 1015.4mb 53f 59f
7:42am 2
mph
1015.4mb 53f 59f
7:36am 2
mph
1015.4mb 53f 59f
7:30am 2 3 mph 1015.3mb 53f 58f
7:24am 3
mph
1015.3mb 53f 58f
7:18am 3 5 mph 1015.3mb 53f 58f
7:12am 3 5 mph 1015.4mb 53f 58f
7:06am 3
mph
1015.4mb 53f 58f
7:00am 2 3 mph 1015.2mb 53f 58f
6:54am  -  2 mph 1015.3mb 53f 58f
6:48am 2
mph
1015.2mb 53f 58f
6:42am 2 3 mph 1015.2mb 53f 58f
6:36am 2 3 mph 1015.3mb 53f 57f
6:30am 2 3 mph 1015.2mb 53f 57f
6:24am 3 5 mph 1015.2mb 53f 58f
6:18am 2 5 mph 1015.2mb 53f 58f
6:12am 2
mph
1015.1mb 53f 58f
6:06am 1 2 mph 1015mb 53f 58f
6:00am  -  3 mph 1015mb 53f 58f
5:54am 2 3 mph 1015mb 53f 58f
5:48am  -  2 mph 1015mb 53f 58f
5:42am 1 2 mph 1015mb 53f 57f
5:36am  -  2 mph 1015mb 53f 57f
5:30am 2
mph
1015mb 53f 57f
5:24am 2
mph
1015mb 53f 56f
5:18am  -  2 mph 1015mb 53f 56f
5:12am 1 2 mph 1014.9mb 53f 57f
5:06am  -  1 mph 1014.8mb 53f 57f
5:00am 1 3 mph 1014.8mb 53f 57f
4:54am 1 3 mph 1014.8mb 53f 58f
4:48am 1 3 mph 1014.8mb 53f 58f
4:42am  -  2 mph 1014.8mb 53f 58f
4:36am 2
mph
1014.9mb 53f 58f
4:30am 1
mph
1014.9mb 53f 58f
4:24am  -  1 mph 1014.9mb 53f 58f
4:18am  -  2 mph 1014.9mb 53f 58f
4:12am  -  mph 1014.8mb 53f 58f
4:06am  -  2 mph 1014.7mb 53f 57f
4:00am  -  3 mph 1014.8mb 53f 57f
3:54am 3 5 mph 1014.8mb 53f 57f
3:48am 3 5 mph 1014.7mb 53f 56f
3:42am 5 6 mph 1014.6mb 53f 58f
3:36am 3 6 mph 1014.6mb 53f 58f
3:30am 5
mph
1014.6mb 53f 58f
3:24am  -  2 mph 1014.6mb 53f 58f
3:18am 2 3 mph 1014.5mb 53f 58f
3:12am 3 5 mph 1014.6mb 53f 58f
3:06am 3
mph
1014.6mb 53f 58f
3:00am 2 3 mph 1014.6mb 53f 58f
2:54am 2
mph
1014.6mb 53f 58f
2:48am 2
mph
1014.7mb 53f 57f
2:42am 2
mph
1014.6mb 53f 56f
2:36am  -  2 mph 1014.5mb 53f 56f
2:30am 1 2 mph - 53f 55f
2:24am 2 3 mph - 53f 55f
2:18am 1 2 mph 1014.6mb 53f 55f
2:12am 2 3 mph 1014.5mb 53f 55f
2:06am 1 2 mph 1014.6mb 53f 55f
2:00am 1 2 mph 1014.6mb 53f 56f
1:54am  -  2 mph 1014.6mb 53f 58f
1:48am 1 2 mph 1014.7mb 53f 58f
1:42am 1 2 mph 1014.7mb 53f 58f
1:36am 1 2 mph 1014.7mb 53f 58f
1:30am 2 3 mph 1014.7mb 53f 57f
1:24am 3 5 mph 1014.8mb 53f 57f
1:18am 2 3 mph 1014.8mb 53f 58f
1:12am 2 3 mph 1014.7mb 53f 58f
1:06am 1 3 mph 1014.7mb 53f 59f
1:00am 3
mph
1014.7mb 53f 60f
12:54am 2 3 mph 1014.6mb 53f 61f
12:48am 3 7 mph 1014.6mb 53f 62f
12:42am 6 8 mph 1014.6mb 53f 62f
12:36am 7 8 mph 1014.6mb 53f 62f
12:30am 2 3 mph 1014.7mb 53f 62f
12:24am 3 5 mph 1014.7mb 53f 62f
12:18am 2 6 mph 1014.6mb 53f 62f
12:12am 5 6 mph 1014.6mb 53f 62f
12:06am 6 8 mph 1014.5mb 53f 62f
12:00am 6 8 mph 1014.4mb 53f 62f
Thu 07/02 11:54pm 5 7 mph 1014.4mb 53f 62f
11:48pm 3 7 mph - - 62f
11:42pm 3 8 mph - - 62f
11:36pm 7 9 mph - - 62f
11:30pm 8 9 mph 1014.3mb 53f 63f
11:24pm 5 7 mph 1014.3mb 53f 64f
11:18pm 3 6 mph 1014.3mb 53f 65f
11:12pm 2 5 mph 1014.2mb 53f 63f
11:06pm 1 2 mph 1014.2mb 53f 60f
11:00pm 2 5 mph 1014.2mb 53f 59f
10:54pm 5 7 mph 1014.2mb 53f 60f
10:48pm 6 7 mph 1014.1mb 53f 60f
10:42pm 2 5 mph 1014mb 52f 61f
10:36pm  -  1 mph 1014mb 52f 63f
10:30pm  -  2 mph 1013.9mb 52f 64f
10:24pm  -  2 mph 1014mb 52f 66f
10:18pm 1 3 mph 1014.1mb 52f 67f
10:12pm 3 6 mph 1014.1mb 52f 68f
10:06pm 3 6 mph 1014.2mb 52f 68f
10:00pm 5 6 mph 1014.2mb 52f 67f
9:54pm 3 6 mph 1014.2mb 52f 69f
9:48pm 1 3 mph 1014.2mb 52f 69f
9:42pm 1 3 mph 1014.2mb 52f 69f
9:36pm 1 3 mph 1014.2mb 52f 68f
9:30pm 2 6 mph 1014.2mb 52f 68f
9:24pm 5 9 mph 1014.2mb 52f 68f
9:18pm 5 10 mph 1014.2mb 52f 68f
9:12pm 1 3 mph 1014.2mb 52f 63f
9:06pm 2 3 mph 1014.3mb 52f 62f
9:00pm 2 5 mph 1014.3mb 52f 67f
8:54pm 5 7 mph 1014.3mb 52f 68f
8:48pm 6 9 mph 1014.3mb 52f 68f
8:42pm 7 9 mph 1014.3mb 52f 68f
8:36pm 7 9 mph 1014.3mb 52f 68f
8:30pm 6 8 mph 1014.3mb 52f 69f
8:24pm 7 9 mph 1014.3mb 52f 69f
8:18pm 8 10 mph 1014.4mb 53f 70f
8:12pm 7 10 mph 1014.4mb 53f 70f
8:06pm 6 9 mph 1014.4mb 53f 71f
8:00pm 6 8 mph 1014.4mb 53f 72f
7:54pm 6 8 mph 1014.4mb 53f 72f
7:48pm 6 8 mph 1014.5mb 53f 73f
7:42pm 5 6 mph 1014.4mb 53f 74f
7:36pm 5 6 mph 1014.4mb 53f 74f
7:30pm 5 6 mph 1014.4mb 53f 75f
7:24pm 5 6 mph 1014.3mb 53f 76f
7:18pm 6 8 mph 1014.4mb 53f 76f
7:12pm 5 7 mph 1014.5mb 53f 77f
7:06pm 3 7 mph 1014.5mb 53f 77f
7:00pm 5 7 mph 1014.6mb 53f 76f
6:54pm 6 8 mph 1014.6mb 53f 76f
6:48pm 5 9 mph 1014.6mb 53f 76f
6:42pm 6 10 mph 1014.6mb 53f 76f
6:36pm 6 9 mph 1014.6mb 53f 76f
6:30pm 7 10 mph 1014.7mb 53f 76f
6:24pm 7 9 mph 1014.7mb 53f 77f
6:18pm 6 9 mph 1014.7mb 53f 78f
6:12pm 6 10 mph 1014.7mb 53f 79f
6:06pm 6 9 mph 1014.7mb 53f 80f
6:00pm 6 10 mph 1014.7mb 53f 81f
5:54pm 7 10 mph 1014.7mb 53f 82f
5:48pm 7 10 mph 1014.8mb 53f 82f
5:42pm 7 9 mph 1014.8mb 53f 83f
5:36pm 7 9 mph 1014.8mb 53f 84f
5:30pm 6 9 mph 1014.8mb 53f 84f
5:24pm 3 7 mph 1014.7mb 53f 85f
5:18pm 6 9 mph 1014.7mb 53f 85f
5:12pm 8 9 mph 1014.7mb 53f 85f
5:06pm 3 8 mph 1014.8mb 54f 86f
5:00pm 3 8 mph 1014.9mb 54f 85f
4:54pm 5 7 mph 1014.9mb 53f 86f
4:48pm 2 7 mph 1015mb 54f 85f
4:42pm 5 8 mph 1015mb 54f 84f
4:36pm 6 8 mph 1015mb 55f 84f
4:30pm 5 8 mph 1015.1mb 55f 84f
4:24pm 6 8 mph 1015.2mb 55f 84f
4:18pm 8 10 mph 1015.2mb 55f 83f
4:12pm 6 8 mph 1015.2mb 55f 84f
4:06pm 6 8 mph 1015.3mb 55f 83f
4:00pm 6 8 mph 1015.3mb 55f 83f
3:54pm 7 8 mph 1015.4mb 55f 84f
3:48pm 6 8 mph 1015.5mb 55f 82f
3:42pm 7 9 mph 1015.5mb 55f 82f
3:36pm 2 3 mph 1015.6mb 55f 82f
3:30pm 2 7 mph 1015.7mb 54f 80f
3:24pm 6 9 mph 1015.7mb 55f 83f
3:18pm 5 8 mph 1015.7mb 55f 82f
3:12pm 3 8 mph 1015.7mb 55f 80f
3:06pm 7 9 mph 1015.9mb 54f 81f
3:00pm 7 9 mph 1016mb 54f 81f
2:54pm 6 9 mph 1016.1mb 54f 81f
2:48pm 6 10 mph 1016mb 54f 81f
2:42pm 6 8 mph 1016mb 54f 81f
2:36pm 6 9 mph 1016.1mb 54f 81f
2:30pm 3 7 mph 1016.2mb 54f 82f
2:24pm 2 10 mph 1016.2mb 55f 81f
2:18pm 10 11 mph 1016.4mb 55f 80f
2:12pm 7 9 mph 1016.5mb 55f 80f
2:06pm 5 7 mph 1016.5mb 55f 79f
2:00pm 5 8 mph 1016.6mb 55f 78f
1:54pm 8 13 mph 1016.6mb 55f 78f
1:48pm 6 11 mph 1016.6mb 55f 78f
1:42pm 5 8 mph 1016.7mb 56f 78f
1:36pm 9 13 mph 1016.8mb 56f 76f
1:30pm 8 10 mph 1016.8mb 56f 78f
1:24pm 7 11 mph 1016.9mb 56f 76f
1:18pm 10 14 mph 1017mb 56f 76f
1:12pm 8 11 mph 1017.1mb 56f 76f
1:06pm 5 15 mph 1017mb 55f 77f
1:00pm 5 14 mph 1017mb 55f 78f
12:54pm 6 10 mph 1017mb 55f 78f
12:48pm 5 13 mph 1017mb 55f 78f
12:42pm 6 14 mph 1017.1mb 55f 77f
12:36pm 8 15 mph 1017.1mb 55f 77f
12:30pm 5 13 mph 1017.2mb 55f 77f
12:24pm 9 11 mph 1017.2mb 55f 77f
12:18pm 8 11 mph 1017.3mb 56f 74f
12:12pm 8 13 mph 1017.3mb 56f 74f
12:06pm 10 15 mph 1017.2mb 56f 75f
12:00pm 10 15 mph 1017.2mb 56f 75f
11:54am 9 14 mph 1017.1mb 56f 74f
11:48am 8 11 mph 1017.1mb 56f 74f
11:42am 7 13 mph 1017.1mb 56f 74f
11:36am 10 16 mph 1017.1mb 56f 74f
11:30am 5 11 mph 1017.1mb 55f 75f
11:24am 7 11 mph 1017.2mb 55f 75f
11:18am 7 13 mph 1017.2mb 54f 74f
11:12am 7 13 mph 1017.3mb 54f 74f
11:06am 7 11 mph 1017.2mb 54f 75f
11:00am 7 14 mph 1017.2mb 54f 75f
10:54am 8 15 mph 1017.2mb 54f 75f
10:48am 8 16 mph 1017.2mb 54f 75f
10:42am 7 10 mph 1017.2mb 54f 76f
10:36am 7 13 mph 1017.2mb 54f 75f
10:30am 9 13 mph 1017.3mb 54f 75f
10:24am 7 11 mph 1017.3mb 54f 75f
10:18am 1 3 mph 1017.4mb 55f 69f
10:12am  -  3 mph 1017.4mb 55f 67f
10:06am 1 2 mph 1017.5mb 55f 66f
10:00am 2 3 mph 1017.5mb 55f 65f
9:54am 2
mph
1017.4mb 55f 65f
9:48am 1 3 mph 1017.5mb 55f 64f
9:42am 3
mph
1017.5mb 55f 66f
9:36am 2 3 mph 1017.5mb 55f 66f
9:30am  -  mph 1017.5mb 55f 65f
9:24am  -  mph - - 63f
9:18am  -  mph - - 62f
9:12am  -  mph 1017.5mb - 64f
9:06am  -  mph 1017.5mb 55f 65f
9:00am  -  mph 1017.4mb 55f -
8:54am  -  mph - 55f -
8:48am  -  mph 1017.4mb - 66f
8:42am  -  mph 1017.3mb 55f 66f
8:36am  -  mph 1017.4mb 55f -
8:30am  -  mph 1017.4mb 54f 65f
8:24am  -  mph 1017.4mb 54f 64f
8:18am  -  mph 1017.4mb 55f 63f
8:12am 3 5 mph 1017.4mb 55f 62f
8:06am 3
mph
1017.4mb 55f 61f
8:00am 3 6 mph 1017.3mb 55f 60f
7:54am 5 6 mph 1017.3mb 54f 60f
7:48am 3 5 mph 1017.2mb 54f 60f
7:42am 5
mph
1017.3mb 54f 59f
7:36am 3 5 mph 1017.2mb 55f 59f
7:30am 2
mph
1017.2mb 55f 58f
7:24am 1 2 mph 1017.2mb 55f 57f
7:18am 1 2 mph 1017.2mb 55f 57f
7:12am 2
mph
1017.1mb 55f 57f
7:06am 2
mph
1017.1mb 55f 57f
7:00am 1 2 mph 1017.1mb 55f 58f
6:54am  -  1 mph 1017.1mb 55f 58f
6:48am  -  3 mph 1017mb 55f 58f
6:42am 2 3 mph 1017mb 55f 57f
6:36am  -  2 mph 1016.9mb 55f 58f
6:30am 2
mph
1016.9mb 55f 58f
6:24am 2
mph
1016.9mb 55f 58f
6:18am 2
mph
1016.8mb 55f 57f
6:12am 2
mph
1016.9mb 55f 57f
6:06am 1 2 mph 1016.8mb 55f 57f
6:00am 1 2 mph 1016.8mb 55f 58f
5:54am 2 3 mph 1016.8mb 55f 57f
5:48am 2 3 mph 1016.8mb 55f 58f
5:42am 3 5 mph 1016.7mb 55f 58f
5:36am 3 6 mph 1016.7mb 55f 58f
5:30am 3 5 mph 1016.6mb 54f 60f
5:24am 2 5 mph 1016.5mb 54f 60f
5:18am 2 5 mph 1016.5mb 54f 60f
5:12am 3 7 mph 1016.5mb 54f 61f
5:06am 3 6 mph 1016.5mb 54f 61f
5:00am 6 7 mph 1016.4mb 54f 62f
4:54am 5 6 mph 1016.3mb 54f 61f
4:48am 2 5 mph 1016.4mb 54f 60f
4:42am 2 3 mph 1016.2mb 54f 60f
4:36am 1 2 mph 1016.2mb 54f 60f
4:30am 1 2 mph 1016.2mb 54f 59f
4:24am 2 3 mph 1016.1mb 54f 59f
4:18am 3 5 mph 1016mb 54f 59f
4:12am 5 6 mph 1016mb 53f 58f
4:06am 6
mph
1015.9mb 53f 58f
4:00am 5
mph
1015.8mb 53f 57f
3:54am 1 2 mph 1015.9mb 53f 57f
3:48am  -  1 mph 1015.9mb 53f 58f
3:42am  -  1 mph 1015.9mb 53f 57f
3:36am 2 3 mph 1015.9mb 53f 57f
3:30am 1 3 mph 1015.8mb 53f 57f
3:24am  -  5 mph 1015.8mb 53f 58f
3:18am 1
mph
1015.8mb 53f 60f
3:12am  -  1 mph 1015.8mb 53f 60f
3:06am  -  1 mph 1015.9mb 53f 59f
3:00am  -  1 mph 1015.9mb 53f 59f
2:54am 1 2 mph 1015.9mb 53f 59f
2:48am  -  2 mph 1015.8mb 53f 58f
2:42am 2
mph
1015.7mb 53f 59f
2:36am  -  2 mph 1015.6mb 53f 59f
2:30am  -  2 mph 1015.6mb 53f 58f
2:24am  -  1 mph 1015.5mb 53f 58f
2:18am  -  1 mph 1015.4mb 53f 58f
2:12am  -  1 mph 1015.4mb 53f 57f
2:06am  -  1 mph 1015.4mb 53f 57f
2:00am 1 3 mph 1015.5mb 53f 57f
1:54am  -  1 mph 1015.5mb 53f 57f
1:48am  -  2 mph 1015.5mb 53f 58f
1:42am 2 5 mph 1015.4mb 53f 59f
1:36am 3 5 mph 1015.3mb 53f 59f
1:30am  -  5 mph 1015.3mb 53f 61f
1:24am 2 6 mph 1015.2mb 53f 62f
1:18am 5 7 mph 1015.1mb 53f 63f
1:12am 5 7 mph 1015.1mb 53f 63f
1:06am 2 5 mph 1015.1mb 53f 61f
1:00am  -  5 mph 1015mb 53f 62f
12:54am 1 2 mph 1014.9mb 53f 62f
12:48am 2 6 mph 1015mb 53f 64f
12:42am 5 7 mph 1014.9mb 53f 67f
12:36am 5 7 mph 1014.9mb 53f 69f
12:30am 3 7 mph 1014.9mb 53f 69f
12:24am 6 7 mph 1014.9mb 53f 71f
12:18am 5 8 mph 1014.9mb 53f 71f
12:12am 5 6 mph 1014.9mb 53f 69f
12:06am 5 7 mph 1014.9mb 53f 64f
12:00am 3 6 mph 1015mb 53f 62f
Wed 07/01 11:54pm 3 5 mph 1015mb 53f 65f
11:48pm 2 6 mph 1014.9mb 53f 71f
11:42pm 3 6 mph 1014.9mb 53f 71f
11:36pm 3 6 mph 1014.9mb 53f 71f
11:30pm 3 6 mph 1014.9mb 53f 71f
11:24pm 5 9 mph 1015mb 53f 71f
11:18pm 6 8 mph 1015mb 53f 71f
11:12pm 7 11 mph 1014.9mb 53f 71f
11:06pm 7 11 mph 1015mb 53f 71f
11:00pm 6 10 mph 1015mb 53f 71f
10:54pm 8 11 mph 1015mb 53f 72f
10:48pm 9 14 mph 1015mb 53f 72f
10:42pm 9 15 mph 1014.9mb 53f 72f
10:36pm 9 14 mph 1015mb 53f 72f
10:30pm 8 13 mph 1015.1mb 53f 72f
10:24pm 8 14 mph 1015.1mb 53f 72f
10:18pm 9 15 mph 1015.1mb 53f 72f
10:12pm 9 15 mph 1015.1mb 53f 73f
10:06pm 10 14 mph 1015.1mb 53f 73f
10:00pm 13 16 mph 1015.1mb 53f 73f
9:54pm 10 16 mph 1015.1mb 53f 73f
9:48pm 13 17 mph 1015.1mb 53f 73f
9:42pm 11 18 mph 1015.1mb 53f 73f
9:36pm 13 20 mph 1015mb 53f 73f
9:30pm 13 20 mph 1014.9mb 53f 72f
9:24pm 13 18 mph 1014.9mb 53f 72f
9:18pm 14 20 mph 1014.8mb 53f 72f
9:12pm 10 18 mph 1014.9mb 53f 72f
9:06pm 11 16 mph 1014.9mb 53f 72f
9:00pm 11 18 mph 1014.8mb 53f 72f
8:54pm 11 18 mph 1014.8mb 53f 72f
8:48pm 10 15 mph 1014.7mb 53f 72f
8:42pm 10 15 mph 1014.7mb 53f 71f
8:36pm 10 17 mph 1014.8mb 53f 71f
8:30pm 13 18 mph 1014.8mb 53f 72f
8:24pm 10 17 mph 1014.8mb 53f 72f
8:18pm 11 17 mph 1014.8mb 53f 72f
8:12pm 11 16 mph 1014.7mb 53f 73f
8:06pm 10 16 mph 1014.8mb 53f 74f
8:00pm 10 18 mph 1014.8mb 53f 74f
7:54pm 10 18 mph 1014.8mb 53f 74f
7:48pm 13 17 mph 1014.8mb 53f 74f
7:42pm 10 17 mph 1014.9mb 53f 74f
7:36pm 14 17 mph 1015mb 53f 74f
7:30pm 11 15 mph 1015mb 53f 75f
7:24pm 10 15 mph 1015mb 53f 75f
7:18pm 11 16 mph 1015mb 53f 74f
7:12pm 10 15 mph 1015mb 53f 74f
7:06pm 13 15 mph 1015mb 53f 73f
7:00pm 13 15 mph 1015mb 53f 74f
6:54pm 8 10 mph 1014.9mb 53f 76f
6:48pm 7 9 mph 1014.8mb 53f 78f
6:42pm 6 10 mph 1014.8mb 53f 79f
6:36pm 7 13 mph 1014.9mb 53f 79f
6:30pm 6 10 mph 1015mb 53f 80f
6:24pm 6 10 mph 1015mb 53f 80f
6:18pm 8 13 mph 1015mb 53f 79f
6:12pm 6 11 mph 1015mb 53f 80f
6:06pm 6 10 mph 1015mb 53f 80f
6:00pm 7 11 mph 1015.1mb 53f 80f
5:54pm 7 10 mph 1015.1mb 53f 80f
5:48pm 8 13 mph 1015.2mb - -
5:42pm 8 11 mph 1015.2mb 53f 80f
5:36pm 6 9 mph 1015.2mb 53f 81f
5:30pm 7 10 mph 1015.2mb 53f 80f
5:24pm 8 13 mph 1015.2mb 53f 79f
5:18pm 7 11 mph 1015.2mb 53f 80f
5:12pm 7 9 mph 1015.2mb 54f 80f
5:06pm 7 10 mph 1015.3mb 54f 80f
5:00pm 8 11 mph 1015.4mb 54f 80f
4:54pm 7 10 mph 1015.4mb 54f 80f
4:48pm 6 10 mph 1015.5mb 54f 81f
4:42pm 8 10 mph 1015.5mb 54f 80f
4:36pm 7 10 mph 1015.6mb 54f 80f
4:30pm 7 13 mph 1015.6mb 54f 80f
4:24pm 8 11 mph 1015.6mb 54f 80f
4:18pm 8 11 mph 1015.7mb 55f 81f
4:12pm 8 11 mph 1015.8mb 54f 79f
4:06pm 10 14 mph 1015.9mb 54f 80f
4:00pm 8 15 mph 1016mb 54f 80f
3:54pm 8 10 mph 1016mb 54f 80f
3:48pm 7 11 mph 1016.1mb 54f 79f
3:42pm 6 13 mph 1016.1mb 53f 79f
3:36pm 9 14 mph 1016.1mb 54f 79f
3:30pm 9 13 mph 1016.2mb 54f 79f
3:24pm 10 14 mph 1016.2mb 54f 78f
3:18pm 9 14 mph 1016.2mb 54f 77f
3:12pm 8 13 mph 1016.3mb 55f 78f
3:06pm 9 14 mph 1016.4mb 55f 78f
3:00pm 10 15 mph 1016.4mb 55f 77f
2:54pm 7 14 mph 1016.4mb 55f 77f
2:48pm 9 14 mph 1016.5mb 55f 76f
2:42pm 9 13 mph 1016.6mb 55f 77f
2:36pm 9 14 mph 1016.6mb 55f 76f
2:30pm 10 14 mph 1016.7mb 56f 76f
2:24pm 11 14 mph 1016.8mb 56f 75f
2:18pm 7 14 mph 1016.9mb 56f 76f
2:12pm 8 14 mph 1016.9mb 56f 75f
2:06pm 6 14 mph 1017mb 56f 76f
2:00pm 9 13 mph 1017mb 56f 75f
1:54pm 8 13 mph 1017.1mb 56f 74f
1:48pm 8 13 mph 1017.1mb 55f 74f
1:42pm 9 14 mph 1017.2mb 55f 73f
1:36pm 9 15 mph 1017.2mb 55f 74f
1:30pm 10 14 mph 1017.3mb 55f 73f
1:24pm 11 16 mph 1017.4mb 55f 73f
1:18pm 8 15 mph 1017.4mb 55f 74f
1:12pm 9 15 mph 1017.4mb 55f 74f
1:06pm 7 14 mph 1017.6mb 55f 74f
1:00pm 9 13 mph 1017.6mb 54f 73f
12:54pm 9 15 mph 1017.7mb 54f 74f
12:48pm 7 13 mph 1017.7mb 54f 74f
12:42pm 7 13 mph 1017.7mb 54f 74f
12:36pm 9 14 mph 1017.7mb 54f 73f
12:30pm 8 14 mph 1017.8mb 54f 73f
12:24pm 7 13 mph 1017.8mb 54f 72f
12:18pm 10 14 mph 1017.9mb 54f 72f
12:12pm 9 14 mph 1017.9mb 54f 72f
12:06pm 10 14 mph 1018mb 54f 72f
12:00pm 10 16 mph 1018mb 54f 71f
11:54am 7 15 mph 1018mb 53f 72f
11:48am 9 14 mph 1018mb 54f 71f
11:42am 5 14 mph 1018mb 54f 73f
11:36am 8 13 mph 1018mb 53f 71f
11:30am 6 14 mph 1018mb 53f 72f
11:24am 11 16 mph 1018.2mb 54f 70f
11:18am 7 13 mph 1018.2mb 54f 71f
10:54am 6 11 mph 1018.3mb 54f 70f
10:48am 7 13 mph 1018.3mb 54f 70f
10:42am 10 14 mph 1018.3mb 54f 69f
10:36am 7 11 mph 1018.4mb 54f 69f
10:30am 6 13 mph 1018.5mb 54f 70f
10:24am 5 9 mph 1018.5mb 54f 69f
10:18am 9 13 mph 1018.4mb 54f 68f
10:12am 6 14 mph 1018.4mb 54f 69f
10:06am 10 14 mph 1018.4mb 54f 68f
10:00am 9 14 mph 1018.4mb 54f 68f
9:54am 8 13 mph 1018.4mb 54f 69f
9:48am 6 10 mph 1018.5mb 54f 68f
9:42am 5 10 mph 1018.6mb 54f 68f
9:36am 7 11 mph 1018.6mb 54f 67f
9:30am 8 14 mph 1018.7mb 55f 68f
9:24am 6 11 mph 1018.7mb 54f 67f
9:18am 7 10 mph 1018.7mb 54f 68f
9:12am 7 13 mph 1018.7mb 54f 67f
9:06am 5 11 mph 1018.6mb 54f 68f
9:00am 8 10 mph 1018.6mb 54f 68f
8:54am 5 9 mph 1018.7mb 54f 67f
8:48am 6 11 mph 1018.7mb 54f 67f
8:42am 5 7 mph 1018.8mb 54f 67f
8:36am 6 8 mph 1018.8mb 54f 66f
8:30am 5 8 mph 1018.8mb 54f 67f
8:24am 5 8 mph 1018.8mb 54f 67f
8:18am 6 7 mph 1018.8mb 54f 66f
8:12am 3 7 mph 1018.8mb 54f 65f
8:06am 5 8 mph 1018.7mb 54f 65f
8:00am 5 7 mph 1018.8mb 54f 64f
7:54am 1 3 mph 1018.8mb 54f 58f
7:48am 2
mph
1018.9mb 54f 57f
7:42am 1 2 mph 1019mb 54f 58f
7:36am  -  1 mph 1019mb 54f 59f
7:30am  -  1 mph 1019mb 54f 59f
7:24am 1 2 mph 1019mb 54f 59f
7:18am 1 5 mph 1019mb 54f 58f
7:12am  -  2 mph 1018.9mb 54f 60f
7:06am 2 3 mph 1018.8mb 54f 60f
7:00am  -  5 mph 1018.8mb 54f 59f
6:54am  -  3 mph 1018.8mb 54f 58f
6:48am 2 5 mph 1018.8mb 54f 59f
6:42am 3
mph
1018.9mb 54f 58f
6:36am 1 2 mph 1018.9mb 54f 58f
6:30am 2 3 mph 1018.8mb 54f 57f
6:24am 1 2 mph 1018.8mb 54f 56f
6:18am  -  2 mph 1018.7mb 54f 57f
6:12am  -  2 mph 1018.7mb 54f 57f
6:06am  -  1 mph 1018.7mb 54f 57f
6:00am 1 2 mph 1018.7mb 54f 57f
5:54am  -  2 mph 1018.6mb 53f 57f
5:48am 2 5 mph 1018.7mb 53f 56f
5:42am 5
mph
1018.6mb 53f 56f
5:36am 3 6 mph 1018.6mb 53f 57f
5:30am 3 5 mph 1018.5mb 53f 57f
5:24am 2 6 mph 1018.5mb 53f 57f
5:18am 2 3 mph 1018.5mb 53f 56f
5:12am 2 3 mph 1018.5mb 53f 57f
5:06am 2 3 mph 1018.5mb 53f 57f
5:00am 2 3 mph 1018.5mb 53f 57f
4:54am 3 5 mph 1018.5mb 53f 57f
4:48am 3 6 mph 1018.6mb 53f 57f
4:42am 3 6 mph 1018.6mb 53f 57f
4:36am 3 6 mph 1018.6mb 53f 57f
4:30am 2 3 mph 1018.6mb 53f 57f
4:24am 2 3 mph 1018.5mb 53f 57f
4:18am  -  3 mph 1018.4mb 53f 57f
4:12am 2 3 mph 1018.3mb 53f 57f
4:06am 2 5 mph 1018.4mb 53f 57f
4:00am 1 3 mph 1018.5mb 53f 57f
3:54am 1 3 mph 1018.4mb 53f 58f
3:48am 2 5 mph 1018.4mb 53f 57f
3:42am 1 2 mph 1018.3mb 53f 58f
3:36am 1 5 mph 1018.4mb 53f 58f
3:30am 1 3 mph 1018.4mb 53f 57f
3:24am  -  2 mph 1018.4mb 53f 58f
3:18am 2 5 mph 1018.3mb 53f 57f
3:12am 2 5 mph 1018.3mb 53f 57f
3:06am 3
mph
1018.3mb 53f 57f
3:00am  -  3 mph 1018.3mb 53f 58f
2:54am 2 5 mph 1018.3mb 53f 58f
2:48am 2 7 mph 1018.3mb 53f 59f
2:42am 3 7 mph 1018.2mb 53f 59f
2:36am 6 10 mph 1018.2mb 53f 59f
2:30am 8 13 mph 1018.2mb 53f 59f
2:24am 10 14 mph 1018.1mb 53f 59f
2:18am 10 14 mph 1018.1mb 53f 59f
2:12am 13 15 mph 1018mb 53f 60f
2:06am 14 16 mph 1018.1mb 53f 60f
2:00am 13 15 mph 1018.1mb 53f 60f
1:54am 11 14 mph 1018.1mb 53f 60f
1:48am 7 10 mph 1018.2mb 53f 60f
1:42am 6 11 mph 1018.2mb 53f 61f
1:36am 9 11 mph 1018.1mb 53f 63f
1:30am 8 11 mph 1018.1mb 53f 62f
1:24am 10 14 mph 1018.1mb 53f 62f
1:18am 10 13 mph 1018.1mb 53f 63f
1:12am 9 13 mph 1018.1mb 53f 63f
1:06am 8 10 mph 1018.2mb 53f 65f
1:00am 6 10 mph 1018.2mb 53f 66f
12:54am 8 13 mph 1018.2mb 53f 65f
12:48am 8 13 mph 1018.3mb 53f 65f
12:42am 9 13 mph 1018.3mb 53f 65f
12:36am 9 13 mph 1018.3mb 53f 64f
12:30am 9 11 mph 1018.3mb 53f 63f
12:24am 9 11 mph 1018.4mb 53f 62f
12:18am 8 11 mph 1018.4mb 53f 62f
12:12am 8 13 mph 1018.5mb 53f 62f
12:06am 8 10 mph 1018.5mb 53f 61f
12:00am 7 11 mph 1018.5mb 53f 61f
Tue 06/30 11:54pm 6 11 mph 1018.5mb 53f 61f
11:48pm  -  mph - 53f 61f
11:42pm  -  mph - 53f 61f
11:36pm  -  mph - 53f 61f
11:30pm 5 9 mph 1018.6mb 53f 61f
11:24pm 5 11 mph 1018.6mb 53f 61f
11:18pm 7 14 mph 1018.5mb 53f 60f
11:12pm 7 16 mph 1018.5mb 53f 60f
11:06pm 13 18 mph 1018.4mb 53f 60f
11:00pm 9 17 mph 1018.3mb 53f 60f
10:54pm 10 18 mph 1018.2mb 53f 60f
10:48pm 14 22 mph 1018.2mb 53f 60f
10:42pm 14 20 mph 1018.2mb 53f 60f
10:36pm 15 25 mph 1018.1mb 53f 60f
10:30pm 16 24 mph 1018mb 53f 60f
10:24pm 11 22 mph 1018.1mb 53f 60f
10:18pm 9 18 mph 1018mb 53f 61f
10:12pm 13 22 mph 1018mb 53f 61f
10:06pm 14 21 mph 1017.8mb 53f 62f
10:00pm 13 17 mph 1017.8mb 53f 64f
9:54pm 10 21 mph 1017.6mb 53f 65f
9:48pm 15 23 mph 1017.6mb 53f 66f
9:42pm 11 22 mph 1017.5mb 53f 66f
9:36pm 14 21 mph 1017.4mb 53f 66f
9:30pm 15 22 mph 1017.3mb 53f 66f
9:24pm 15 22 mph 1017.2mb 53f 66f
9:18pm 15 22 mph 1017.2mb 53f 66f
9:12pm 15 23 mph 1017.1mb 53f 67f
9:06pm 14 25 mph 1017mb 53f 67f
9:00pm 17 29 mph 1017mb 53f 67f
8:54pm 16 26 mph 1016.9mb 53f 67f
8:48pm 18 26 mph 1016.9mb 53f 68f
8:42pm 17 24 mph 1017mb 53f 68f
8:36pm 13 25 mph 1016.9mb 53f 69f
8:30pm 14 28 mph 1016.9mb 53f 69f
8:24pm 14 24 mph 1016.8mb 53f 69f
8:18pm 15 24 mph 1016.9mb 53f 69f
8:12pm 15 25 mph 1016.8mb 53f 69f
8:06pm 14 24 mph 1016.9mb 53f 68f
8:00pm 16 26 mph 1016.9mb 53f 68f
7:54pm 15 25 mph 1016.9mb 53f 68f
7:48pm 15 24 mph 1017mb 53f 68f
7:42pm 18 24 mph 1016.9mb 53f 68f
7:36pm 15 26 mph 1016.9mb 53f 68f
7:30pm 17 32 mph 1016.8mb 53f 69f
7:24pm 18 28 mph 1016.8mb 53f 69f
7:18pm 17 29 mph 1016.8mb 53f 69f
7:12pm 15 23 mph 1017mb 53f 69f
7:06pm 17 26 mph 1017mb 53f 69f
7:00pm 17 22 mph 1017.1mb 53f 69f
6:54pm 15 23 mph 1017.3mb 53f 69f
6:48pm 10 22 mph 1017.3mb 53f 70f
6:42pm 13 22 mph 1017.5mb 53f 69f
6:36pm 10 23 mph 1017.5mb 53f 69f
6:30pm 9 17 mph 1017.5mb 53f 70f
6:24pm 10 15 mph 1017.6mb 53f 70f
6:18pm 10 17 mph 1017.7mb 53f 69f
6:12pm 10 17 mph 1017.8mb 53f 70f
6:06pm 6 11 mph 1017.8mb 53f 71f
6:00pm 9 14 mph 1017.8mb 53f 73f
5:54pm 8 13 mph 1017.7mb 53f 73f
5:48pm 7 13 mph 1017.7mb 53f 74f
5:42pm 6 13 mph 1017.8mb 53f 74f
5:36pm 9 15 mph 1017.9mb 53f 74f
5:30pm 6 11 mph 1017.9mb 53f 74f
5:24pm 8 13 mph 1018mb 53f 72f
5:18pm 5 10 mph 1018.1mb 53f 71f
5:12pm 9 15 mph 1018.2mb 53f 71f
5:06pm 8 13 mph 1018.2mb 53f 70f
5:00pm 10 13 mph 1018.2mb 53f 69f
4:54pm 7 11 mph 1018.2mb 53f 69f
4:48pm 6 10 mph 1018.2mb 53f 69f
4:42pm 8 13 mph 1018.3mb 54f 69f
4:36pm 9 14 mph 1018.4mb 54f 68f
4:00pm 8 13 mph 1018.7mb 55f 70f
3:54pm 8 13 mph 1018.7mb 55f 69f
3:48pm 9 14 mph 1018.8mb 55f 69f
3:42pm 9 11 mph 1018.9mb 55f 68f
3:36pm 11 14 mph 1018.9mb 55f 68f
3:30pm 9 14 mph 1018.9mb 55f 70f
3:24pm 5 11 mph 1019mb 56f 71f
3:18pm 9 13 mph 1019.1mb 56f 70f
3:12pm 6 13 mph 1019.1mb 56f 70f
3:06pm 8 11 mph 1019.2mb 56f 70f
3:00pm 8 14 mph 1019.2mb 56f 70f
2:54pm 9 13 mph 1019.3mb 55f 69f
2:48pm 10 14 mph 1019.4mb 55f 68f
2:42pm 8 13 mph 1019.5mb 55f 67f
2:36pm 13 16 mph 1019.6mb 55f 66f
2:30pm 8 11 mph 1019.4mb 55f 70f
2:24pm 7 14 mph 1019.3mb 55f 72f
2:18pm 2 11 mph 1019.5mb 55f 71f
2:12pm 7 10 mph 1019.4mb 55f 73f
2:06pm 8 11 mph 1019.5mb 55f 73f
2:00pm 3 10 mph 1019.5mb 55f 72f
1:54pm 3 7 mph 1019.5mb 55f 71f
1:48pm 2 6 mph 1019.5mb 55f 70f
1:42pm 2 8 mph 1019.5mb 55f 72f
1:36pm 1 8 mph 1019.6mb 55f 70f
1:30pm 7 9 mph 1019.6mb 55f 70f
1:24pm 9 11 mph 1019.7mb 55f 69f
1:18pm 10 11 mph 1019.7mb 56f 68f
1:12pm 9 10 mph 1019.7mb 56f 69f
1:06pm 9 11 mph 1019.8mb 56f 68f
1:00pm 7 8 mph 1019.8mb 56f 69f
12:54pm 7 8 mph 1019.8mb 56f 69f
12:48pm 7 8 mph 1019.9mb 56f 68f
12:42pm 8 9 mph 1020mb 56f 67f
12:36pm 5 7 mph 1020mb 56f 66f
12:30pm 7
mph
1020.1mb 56f 66f
12:24pm 5 7 mph 1020.1mb 56f 65f
12:18pm 2 6 mph 1020.2mb 56f 68f
12:12pm 2 8 mph 1020.2mb 56f 66f
12:06pm 8 9 mph 1020.3mb 56f 66f
12:00pm 7 8 mph 1020.3mb 56f 67f
11:54am 7 8 mph 1020.3mb 55f 65f
11:48am 7 8 mph 1020.2mb 55f 65f
11:42am 7
mph
1020.3mb 56f 65f
11:36am 7 8 mph 1020.3mb 56f 65f
11:30am 6 8 mph 1020.3mb 56f 66f
11:24am 2 5 mph 1020.4mb 55f 65f
11:18am 2 5 mph 1020.4mb 55f 65f
11:12am 3 5 mph 1020.5mb 55f 63f
11:06am 5 7 mph 1020.5mb 55f 65f
11:00am 7 9 mph 1020.6mb 55f 64f
10:54am 8 9 mph 1020.6mb 55f 63f
10:48am 8 9 mph 1020.6mb 55f 63f
10:42am 8 9 mph 1020.5mb 55f 62f
10:36am 7 9 mph 1020.5mb 55f 61f
10:30am 8 9 mph 1020.5mb 55f 62f
10:24am 8 9 mph 1020.5mb 55f 62f
10:18am 8 10 mph 1020.4mb 54f 61f
10:12am 8 9 mph 1020.4mb 54f 63f
10:06am 5 6 mph 1020.5mb 54f 64f
10:00am 3 7 mph 1020.5mb 54f 62f
9:54am 5 8 mph 1020.5mb 54f 63f
9:48am 6 7 mph 1020.5mb 54f 62f
9:42am 6 7 mph 1020.4mb 54f 62f
9:36am 6 9 mph 1020.4mb 54f 62f
9:30am 7
mph
1020.4mb 54f 61f
9:24am 5 6 mph 1020.4mb 54f 62f
9:18am 5 6 mph 1020.3mb 53f 62f
9:12am 5 6 mph 1020.4mb 53f 62f
9:06am 5 6 mph 1020.4mb 53f 61f
9:00am 6 7 mph 1020.4mb 53f 60f
8:54am 6 8 mph 1020.4mb 53f 59f
8:48am 7
mph
1020.4mb 53f 59f
8:42am 6
mph
1020.4mb 53f 59f
8:36am 6
mph
1020.5mb 53f 58f
8:30am 6
mph
1020.4mb 53f 57f
8:24am 6
mph
1020.4mb 53f 56f
8:18am 3 6 mph 1020.4mb 53f 56f
8:12am 5 6 mph 1020.5mb 53f 56f
8:06am 6
mph
1020.4mb 53f 55f
8:00am 6
mph
1020.3mb 53f 55f
7:54am 3 6 mph 1020.3mb 53f 54f
7:48am 3 5 mph 1020.3mb 53f 55f
7:42am 3 5 mph 1020.3mb 53f 55f
7:36am 5 6 mph 1020.2mb 53f 55f
7:30am 5 6 mph 1020.3mb 53f 54f
7:24am 5
mph
1020.2mb 53f 54f
7:18am 3 5 mph 1020.3mb 53f 54f
7:12am 1 5 mph 1020.3mb 53f 54f
7:06am 3
mph
1020.3mb 53f 54f
7:00am  -  2 mph 1020.2mb 53f 54f
6:54am 2
mph
1020.2mb 53f 54f
6:48am  -  2 mph 1020.2mb 53f 54f
6:42am 1 2 mph 1020.2mb 53f 54f
6:36am  -  1 mph 1020.2mb 53f 54f
6:30am  -  2 mph 1020mb 53f 54f
6:24am  -  2 mph 1019.8mb 53f 55f
6:18am  -  2 mph 1019.8mb 53f 54f
6:12am 2
mph
1019.8mb 53f 54f
6:06am 2
mph
1019.9mb 53f 55f
6:00am 2 3 mph 1019.8mb 53f 55f
5:54am 2 3 mph 1019.7mb 53f 55f
5:48am  -  2 mph 1019.6mb 53f 56f
5:42am 2 3 mph 1019.6mb 53f 56f
5:36am 3 5 mph 1019.6mb 53f 56f
5:30am 2 5 mph 1019.5mb 53f 56f
5:24am  -  2 mph 1019.6mb 53f 56f
5:18am 1 2 mph 1019.5mb 53f 57f
5:12am 1 2 mph 1019.4mb 53f 57f
5:06am 1 2 mph 1019.4mb 53f 57f
5:00am  -  1 mph 1019.4mb 53f 57f
4:54am  -  2 mph 1019.3mb 53f 57f
4:48am  -  2 mph 1019.3mb 53f 57f
4:42am 3 5 mph 1019.3mb 53f 57f
4:36am 2 5 mph 1019.2mb 53f 57f
4:30am 3 5 mph 1019.2mb 53f 57f
4:24am 3
mph
1019.2mb 53f 58f
4:18am 2 3 mph 1019.2mb 53f 58f
4:12am 1 2 mph 1019.1mb 53f 58f
4:06am 1 2 mph 1019.1mb 53f 57f
4:00am 2 3 mph 1019.2mb 53f 58f
3:54am 2 3 mph 1019.1mb 53f 58f
3:48am 2 3 mph 1019.1mb 53f 58f
3:42am 2 3 mph 1019mb 53f 58f
3:36am 2 3 mph 1019mb 53f 57f
3:30am 2 3 mph 1019mb 53f 57f
3:24am  -  2 mph 1018.9mb 53f 57f
3:18am  -  3 mph 1018.8mb 53f 57f
3:12am  -  3 mph 1018.9mb 53f 58f
3:06am 1 2 mph 1018.9mb 53f 58f
3:00am  -  2 mph 1018.8mb 53f 59f
2:54am 2 7 mph 1018.8mb 53f 59f
2:48am 5 8 mph 1018.7mb 53f 59f
2:42am 7 9 mph 1018.6mb 53f 59f
2:36am 7 8 mph 1018.5mb 53f 59f
2:30am 6 9 mph 1018.6mb 53f 59f
2:24am 7 9 mph 1018.6mb 53f 59f
2:18am 8 9 mph 1018.5mb 53f 59f
2:12am 6 7 mph 1018.5mb 53f 60f
2:06am 3 5 mph 1018.6mb 53f 60f
2:00am 3 5 mph 1018.6mb 53f 60f
1:54am 3 6 mph 1018.5mb 53f 60f
1:48am 5 6 mph 1018.6mb 53f 60f
1:42am 5
mph
1018.5mb 53f 60f
1:36am 3 5 mph 1018.4mb 53f 60f
1:30am 2 3 mph 1018.3mb 53f 61f
1:24am 3 6 mph 1018.4mb 53f 61f
1:18am 5 7 mph 1018.3mb 53f 61f
1:12am 5 6 mph 1018.2mb 53f 62f
1:06am 1 3 mph 1018.2mb 53f 61f
1:00am 1 2 mph 1018.3mb 53f 60f
12:54am  -  5 mph 1018.2mb 53f 61f
12:48am 1 3 mph 1018.1mb 53f 62f